User: anonymous   Login
Location: Columbia
(38.9520°N, 92.3340°W)
Time: 12:03:33
(UTC-05:00)
Language:

Cosmos 2219 Rocket - Orbit

View from above orbital plane
View from above orbital plane
View from above satellite
View from above satellite

Ground track
Ground track

The orbit data is extracted from the following two-line orbital elements,

1 22220U 92076B   15116.84096672  .00000280  00000-0  16515-3 0  9999
2 22220 070.9999 265.9708 0012013 015.7360 133.8738 14.16362803159999
Epoch (UTC): 26 April 2015 20:10:59
Eccentricity: 0.0012013
inclination: 70.9999°
perigee height: 829 km
apogee height: 846 km
right ascension of ascending node: 265.9708°
argument of perigee: 15.7360°
revolutions per day: 14.16362803
mean anomaly at epoch: 133.8738°
orbit number at epoch: 15999

The dashed part of the orbit path shows where the satellite is in the earth's shadow,  

DLR